Wind_Speed
48 41 35 42 44 44 48 48 47 46 36 34 38 43 36 41 47 52 56 60 58 55 52 51 49 50 50 53 54 55 55 56 58 57 58 56 54 52 50 47 46 44 39
38 37 37 42 42 46 47 47 49 47 44 37 41 39 45 46 50 52 56 60 60 54 45 46 48 51 55 57 61 59 59 59 60 58 55 53 52 50 48 45 40 37 35
41 43 45 46 46 49 50 53 50 45 38 42 36 47 43 46 50 49 48 48 44 43 47 50 51 53 57 61 64 63 62 62 59 57 55 53 49 47 46 43 39 35 33
45 47 49 49 49 50 48 49 47 43 33 35 44 48 49 50 37 39 42 41 42 47 49 52 57 59 62 63 64 63 61 60 57 57 55 51 47 45 44 41 38 37 34
49 49 48 46 45 46 43 48 48 35 39 46 45 46 39 26 32 43 42 53 41 44 53 61 64 65 64 64 64 62 61 60 56 54 50 46 43 42 41 38 36 35 35
47 44 46 49 49 45 46 52 47 43 38 41 43 39 36 37 53 52 57 52 49 53 57 60 61 61 61 60 60 57 57 55 50 47 44 43 41 40 39 37 34 37 37
43 48 51 55 50 46 45 44 35 35 32 34 39 42 45 52 57 59 61 58 57 60 62 60 57 57 55 53 52 51 49 47 44 44 43 40 38 38 37 39 38 37 36
34 46 38 36 43 39 36 33 34 29 34 37 41 46 53 57 59 63 63 63 62 60 60 59 51 48 45 50 56 52 45 42 41 38 36 35 34 36 35 34 38 38 38
44 47 45 49 26 29 29 31 35 33 36 40 45 50 55 58 60 62 64 62 59 58 56 48 45 46 47 54 50 41 37 37 35 33 31 32 32 33 34 34 36 37 37
49 29 28 22 26 29 33 33 37 44 48 51 55 59 60 61 63 62 60 56 57 49 44 47 47 50 54 52 41 35 33 33 32 33 32 30 31 33 36 36 34 33 34
34 20 21 26 25 27 32 36 41 46 50 54 59 58 57 54 53 54 50 46 39 40 46 48 51 53 45 35 30 30 31 28 28 28 28 30 31 32 33 33 33 34 33
22 27 28 31 33 35 39 43 47 49 51 51 50 51 51 53 52 47 41 37 40 45 48 48 45 34 32 31 30 30 29 29 29 29 30 32 32 32 33 32 32 31 30
23 29 31 35 40 42 45 47 47 43 45 48 48 48 48 39 37 36 35 36 40 41 40 33 36 36 34 33 32 31 31 31 30 29 28 28 29 30 30 30 30 30 27
25 33 38 41 44 42 42 40 42 44 44 40 43 43 34 29 26 27 27 25 24 25 26 26 28 26 23 23 24 25 25 25 26 27 28 28 27 27 27 26 23 24 24
33 36 39 41 37 34 38 41 41 42 41 37 34 31 29 27 27 26 26 26 25 25 26 23 21 19 19 20 22 24 25 25 25 25 23 22 22 20 19 17 15 14 15
32 32 31 30 32 36 38 40 38 34 32 31 28 28 26 25 26 27 26 25 26 23 18 16 16 18 20 20 21 22 23 24 24 22 20 16 13 12 13 14 13 14 13
26 24 27 31 34 36 35 29 26 28 29 26 25 25 24 22 23 24 20 16 14 14 14 16 17 18 18 19 22 24 25 24 20 18 13 10 10 12 15 17 12 7 4
23 26 29 31 32 26 21 20 24 23 22 24 26 23 18 17 16 15 15 14 15 15 15 16 17 18 20 22 24 27 29 25 19 14 9 10 9 11 15 16 12 7 6
24 26 27 24 17 16 19 18 16 17 21 22 21 19 18 18 17 16 16 15 15 15 16 16 17 19 21 24 26 29 30 23 16 10 8 8 10 15 14 12 11 9 6
24 20 15 14 15 16 14 14 17 19 19 20 20 20 20 18 17 16 15 15 15 15 15 16 18 19 22 25 28 31 31 22 12 9 11 13 15 17 17 16 11 6 7
15 16 16 14 11 10 12 14 16 17 18 20 21 21 20 18 17 17 17 17 17 15 15 16 19 22 24 26 29 32 30 18 10 11 14 16 18 28 32 29 13 4 5
19 18 14 12 12 13 14 14 14 15 16 17 19 20 20 19 18 17 16 15 15 16 16 17 20 22 25 27 30 34 28 16 10 12 13 13 15 20 28 37 32 18 9
19 16 13 11 12 13 13 14 13 14 15 17 19 19 20 19 19 18 16 16 16 17 18 18 21 23 24 26 29 31 25 16 9 9 11 9 10 15 22 26 31 31 19
22 18 15 12 12 13 13 14 14 14 16 17 18 18 18 18 19 19 18 17 16 17 16 18 19 21 23 24 26 27 25 16 10 7 8 9 7 10 15 21 24 24 27
20 21 20 20 20 19 17 16 15 15 16 16 16 17 18 18 18 20 21 20 19 17 17 18 17 18 20 22 23 24 23 19 12 7 6 6 4 4 8 12 17 18 18
17 18 18 19 19 19 20 22 23 23 22 21 19 19 18 18 18 18 19 19 20 20 19 18 19 20 17 19 20 22 22 20 19 12 8 7 6 5 5 7 9 11 12
Wind_Direction
303 298 303 300 310 310 305 300 310 311 305 293 287 296 294 294 296 293 291 287 286 285 286 285 291 295 293 292 296 294 292 289 287 289 290 291 291 291 292 292 290 286 280
297 298 300 305 305 300 299 297 306 304 300 293 292 296 299 292 293 290 287 287 285 285 288 293 294 295 298 295 293 290 289 290 290 291 289 289 288 288 287 287 279 271 268
290 296 295 294 296 293 292 291 293 303 292 285 291 300 293 298 295 287 286 284 284 294 294 294 294 290 285 286 288 288 291 291 291 290 289 286 284 282 282 280 274 268 272
284 290 291 290 290 292 292 295 291 295 285 289 301 299 292 293 288 290 288 294 300 298 294 287 287 287 286 287 288 289 289 289 289 287 285 284 281 279 278 274 272 268 271
278 283 285 285 290 299 290 293 297 277 294 298 299 300 290 283 296 296 293 303 298 284 283 284 285 287 287 288 288 289 288 287 286 285 283 281 278 277 277 270 269 268 269
272 280 282 285 288 294 295 296 283 290 293 302 293 297 287 288 303 299 300 304 298 289 288 288 288 288 288 289 289 291 289 289 288 286 281 277 276 275 271 267 269 271 272
273 284 282 280 283 291 291 282 281 292 291 294 300 298 296 293 291 300 300 301 299 297 294 293 293 294 293 293 298 297 292 287 285 280 277 274 271 269 271 269 273 276 274
294 299 282 283 282 286 292 287 282 292 299 301 303 297 291 295 296 298 300 300 297 296 297 298 296 296 294 302 304 305 295 292 288 286 281 275 272 270 273 273 270 271 276
307 306 290 289 297 299 291 290 294 300 305 306 305 301 297 296 299 299 298 301 299 298 300 296 299 298 297 305 306 299 295 291 287 285 280 275 273 273 274 274 276 269 270
313 307 291 292 305 294 299 300 293 298 300 300 301 300 301 301 300 299 300 298 298 299 301 300 302 304 303 306 304 302 299 294 290 286 281 276 276 277 279 278 278 274 275
300 304 305 303 299 304 299 297 296 295 297 297 298 302 304 306 306 302 297 301 299 299 302 301 301 306 308 304 309 310 303 300 294 289 284 283 282 284 285 284 279 278 275
289 303 305 303 303 305 304 304 302 302 302 304 304 307 307 305 300 300 301 299 300 299 298 300 312 313 308 308 307 308 305 299 293 290 289 287 287 286 282 280 277 273 270
304 303 301 304 307 309 308 306 306 309 308 310 310 306 307 307 309 309 310 305 300 298 302 306 304 304 305 305 305 308 306 303 301 300 298 294 291 289 287 281 277 273 271
304 303 308 310 307 309 308 308 310 310 313 311 308 311 310 314 325 326 320 317 316 317 317 323 322 320 316 311 308 308 310 310 307 303 300 301 301 299 293 288 283 278 268
306 306 306 304 307 309 309 310 311 313 311 315 315 311 311 315 313 317 331 338 336 328 328 328 328 337 340 335 330 327 325 324 318 314 314 311 308 306 304 303 302 295 272
302 302 305 307 310 311 311 312 313 314 317 313 313 311 313 316 317 326 339 334 332 339 347 346 346 344 341 340 337 337 335 330 328 326 324 324 323 323 323 319 306 291 275
310 316 316 313 310 311 311 316 322 321 318 328 327 331 328 324 326 332 349 356 358 3 2 352 353 353 355 355 353 351 345 340 337 335 336 336 336 336 343 341 338 333 308
324 317 315 312 311 314 327 333 327 329 341 345 348 347 348 345 347 360 14 19 15 5 5 9 4 359 358 357 357 355 353 349 343 344 345 348 339 351 4 2 348 317 313
323 319 315 315 330 340 347 346 348 359 9 14 15 19 17 19 18 18 16 12 9 11 13 11 10 8 5 3 359 356 354 353 350 358 9 1 349 351 345 354 356 342 291
325 326 335 352 358 358 8 11 25 26 22 21 19 19 20 19 19 18 17 16 17 17 16 14 10 6 5 5 1 358 357 0 12 30 29 24 8 360 358 344 343 349 337
349 358 360 6 23 25 19 16 18 21 25 23 23 21 18 15 16 20 19 19 17 15 15 13 10 9 7 6 3 2 7 21 53 50 47 44 58 50 38 31 24 27 28
12 9 13 24 23 17 18 23 28 28 27 21 14 10 9 11 12 13 12 12 13 14 13 11 11 10 11 11 10 11 19 43 76 63 62 80 61 46 42 40 41 53 79
18 15 19 21 15 17 20 21 17 16 11 8 7 5 7 10 12 14 13 12 11 12 12 11 12 12 13 16 16 19 26 46 72 62 63 73 48 46 41 43 46 49 61
32 28 22 15 4 2 360 356 353 352 352 354 355 2 10 16 17 18 17 15 14 14 11 11 11 13 16 19 21 24 30 38 49 54 40 58 47 30 30 36 40 53 59
33 36 38 38 35 32 27 21 13 9 6 8 10 12 13 13 14 16 18 19 17 14 14 14 10 10 16 19 23 26 29 35 32 24 27 22 24 11 354 15 29 38 54
33 34 34 35 36 37 38 38 39 38 36 32 27 22 18 12 9 9 10 13 16 19 18 16 16 16 17 20 22 25 27 29 33 28 3 340 350 348 345 351 9 28 36
Height
5831 5829 5822 5822 5822 5819 5816 5803 5809 5812 5808 5810 5800 5796 5794 5792 5789 5787 5783 5778 5777 5776 5773 5769 5766 5761 5758 5753 5747 5743 5739 5735 5731 5728 5723 5718 5713 5710 5709 5705 5702 5700 5698
5822 5822 5820 5816 5815 5812 5811 5808 5804 5801 5797 5794 5792 5789 5787 5783 5779 5774 5770 5767 5764 5763 5759 5757 5754 5750 5745 5740 5735 5729 5724 5719 5715 5712 5707 5702 5698 5695 5693 5693 5690 5688 5688
5817 5816 5814 5812 5810 5807 5804 5799 5795 5791 5784 5783 5780 5779 5775 5771 5768 5764 5759 5756 5755 5752 5748 5746 5742 5737 5732 5727 5720 5714 5708 5703 5698 5694 5692 5687 5684 5682 5681 5679 5677 5677 5676
5812 5808 5802 5800 5798 5794 5791 5788 5784 5781 5779 5778 5774 5769 5764 5758 5754 5752 5751 5748 5745 5742 5737 5732 5726 5720 5715 5709 5703 5697 5692 5686 5681 5677 5675 5672 5670 5667 5665 5665 5665 5664 5664
5803 5799 5794 5790 5788 5784 5780 5777 5775 5775 5771 5767 5761 5757 5752 5747 5746 5745 5740 5735 5731 5727 5722 5716 5710 5705 5699 5692 5687 5680 5673 5668 5663 5660 5658 5657 5656 5654 5652 5652 5652 5653 5652
5792 5790 5786 5782 5778 5774 5771 5768 5765 5761 5760 5755 5751 5747 5744 5739 5736 5730 5725 5721 5718 5713 5706 5699 5694 5686 5680 5674 5669 5662 5655 5651 5648 5645 5644 5642 5641 5639 5637 5638 5639 5640 5640
5783 5782 5778 5771 5770 5767 5762 5758 5754 5751 5748 5745 5743 5737 5734 5728 5722 5718 5712 5707 5700 5694 5687 5681 5675 5668 5663 5656 5652 5647 5641 5635 5632 5630 5628 5627 5626 5625 5626 5626 5626 5626 5626
5774 5769 5764 5759 5758 5755 5753 5748 5745 5742 5740 5737 5731 5727 5721 5716 5709 5704 5698 5691 5684 5676 5669 5662 5657 5653 5648 5642 5636 5631 5626 5622 5619 5618 5617 5615 5614 5614 5613 5613 5613 5614 5613
5762 5757 5754 5751 5748 5746 5743 5740 5738 5735 5731 5725 5720 5715 5708 5702 5697 5690 5682 5675 5667 5660 5652 5647 5644 5639 5634 5627 5622 5618 5613 5610 5607 5605 5604 5603 5602 5601 5601 5601 5600 5600 5601
5752 5747 5743 5742 5741 5739 5736 5733 5730 5725 5719 5712 5706 5701 5694 5688 5679 5673 5665 5657 5651 5646 5641 5635 5632 5627 5621 5616 5611 5607 5603 5600 5597 5595 5594 5593 5590 5589 5588 5588 5589 5588 5589
5743 5741 5738 5738 5734 5730 5727 5724 5719 5713 5707 5701 5695 5688 5679 5670 5662 5655 5649 5644 5640 5635 5630 5625 5620 5615 5610 5604 5602 5597 5595 5591 5588 5586 5585 5582 5580 5580 5579 5577 5577 5576 5576
5736 5736 5733 5729 5726 5721 5717 5712 5705 5701 5694 5689 5681 5673 5666 5659 5651 5643 5637 5633 5630 5625 5621 5617 5612 5607 5602 5597 5594 5591 5587 5584 5581 5578 5575 5573 5571 5570 5567 5566 5564 5564 5564
5730 5728 5725 5722 5717 5711 5705 5700 5695 5689 5682 5675 5668 5662 5656 5649 5640 5634 5628 5624 5620 5617 5614 5608 5604 5598 5593 5589 5586 5583 5580 5577 5573 5569 5567 5564 5561 5559 5556 5554 5553 5553 5553
5723 5718 5714 5710 5705 5701 5695 5690 5685 5679 5672 5666 5658 5652 5646 5640 5633 5628 5623 5618 5614 5609 5605 5601 5596 5592 5587 5584 5580 5577 5574 5570 5567 5563 5559 5555 5552 5549 5546 5543 5542 5541 5541
5713 5710 5706 5700 5698 5693 5686 5681 5675 5668 5663 5656 5651 5646 5640 5633 5628 5623 5618 5610 5607 5603 5600 5595 5592 5589 5584 5581 5577 5573 5569 5564 5559 5555 5551 5548 5545 5542 5539 5536 5534 5532 5531
5707 5702 5698 5694 5690 5684 5680 5671 5666 5662 5657 5651 5645 5640 5633 5627 5622 5617 5612 5607 5603 5599 5597 5595 5592 5588 5585 5580 5575 5571 5566 5560 5555 5550 5546 5543 5541 5539 5536 5533 5531 5529 5528
5698 5695 5690 5686 5683 5678 5673 5666 5661 5657 5651 5644 5639 5630 5625 5622 5617 5612 5609 5605 5602 5600 5598 5595 5592 5588 5584 5579 5574 5569 5563 5557 5551 5547 5544 5542 5540 5537 5534 5532 5529 5527 5526
5693 5690 5685 5681 5676 5671 5666 5661 5658 5653 5647 5639 5631 5628 5624 5619 5615 5612 5609 5606 5604 5602 5598 5595 5592 5588 5584 5579 5573 5567 5560 5554 5549 5546 5544 5542 5540 5538 5535 5531 5528 5527 5527
5689 5684 5680 5675 5670 5666 5661 5659 5657 5651 5642 5636 5634 5630 5626 5621 5618 5615 5611 5609 5606 5603 5600 5597 5593 5589 5585 5579 5573 5566 5559 5553 5548 5546 5544 5543 5541 5539 5535 5531 5528 5526 5525
5684 5680 5675 5671 5667 5663 5661 5659 5653 5647 5643 5641 5637 5633 5629 5625 5621 5618 5614 5611 5608 5605 5602 5598 5595 5590 5585 5580 5573 5566 5558 5552 5548 5547 5546 5545 5543 5539 5534 5529 5526 5524 5524
5680 5675 5672 5669 5666 5664 5662 5658 5653 5650 5647 5643 5639 5635 5631 5627 5623 5620 5616 5613 5610 5607 5604 5600 5596 5591 5586 5581 5574 5566 5558 5553 5551 5550 5549 5549 5547 5543 5537 5529 5524 5524 5524
5677 5674 5671 5669 5666 5665 5662 5658 5655 5652 5649 5646 5642 5638 5634 5630 5626 5622 5619 5615 5612 5609 5606 5602 5598 5594 5589 5583 5576 5568 5561 5557 5556 5555 5554 5554 5551 5548 5543 5538 5532 5528 5529
5679 5676 5673 5671 5668 5665 5663 5660 5657 5654 5651 5648 5644 5640 5636 5632 5628 5624 5621 5617 5614 5611 5607 5604 5600 5596 5591 5586 5580 5573 5566 5563 5561 5560 5559 5558 5557 5554 5551 5547 5544 5539 5536
5681 5678 5675 5672 5669 5667 5664 5661 5658 5655 5652 5649 5645 5641 5638 5634 5630 5626 5622 5619 5615 5612 5609 5605 5602 5598 5593 5589 5584 5578 5572 5568 5566 5565 5563 5562 5561 5559 5557 5554 5552 5550 5547
5685 5681 5678 5675 5672 5668 5665 5662 5658 5655 5652 5649 5646 5642 5639 5636 5632 5629 5625 5621 5618 5614 5610 5607 5603 5600 5596 5592 5587 5583 5578 5573 5570 5568 5567 5565 5564 5562 5561 5559 5558 5556 5555
5687 5685 5682 5679 5676 5672 5669 5665 5662 5658 5655 5651 5648 5645 5641 5638 5634 5631 5627 5624 5620 5616 5613 5609 5606 5602 5598 5594 5590 5586 5582 5578 5574 5571 5569 5567 5566 5565 5564 5562 5561 5560 5559